Location: Unspecified
(0.0000°N, 0.0000°E)
Time: 16:07:30
(UTC+00:00)

Fuji - Visible Passes

Search period start: 09 December 2023 00:00
Search period end: 19 December 2023 00:00
Orbit: 1479 x 1496 km, 50.0° (Epoch: 08 December)

Date Brightness Start Highest point End Pass type
(mag) Time Alt. Az. Time Alt. Az. Time Alt. Az.
15 Dec ? 22:20:26 10° S 22:20:52 11° S 22:20:52 11° S visible
16 Dec ? 21:29:08 10° SSE 21:29:11 10° SSE 21:29:11 10° SSE visible
17 Dec ? 22:32:22 10° SSW 22:33:17 13° SSW 22:33:17 13° SSW visible
18 Dec ? 21:39:22 10° S 21:41:43 17° S 21:41:43 17° S visible
